Location: Hope
(40.9110°N, 74.9680°W)
Time: 01:19:14
(UTC-04:00)

Envisat - Pass Details

Date: 26 January 2019
Orbit: 764 x 766 km, 98.1° (Epoch: 18 October)

Event Time Altitude Azimuth Distance (km) Brightness Sun altitude
Rises 19:17:18 0° 184° (S) 3,218 6.3 -24.1°
Reaches altitude 10° 19:19:42 10° 191° (SSW) 2,296 5.6 -24.6°
Maximum altitude 19:24:29 42° 262° (W) 1,090 4.2 -25.5°
Drops below altitude 10° 19:29:18 10° 333° (NNW) 2,311 5.7 -26.4°
Sets 19:31:44 0° 340° (NNW) 3,241 6.5 -26.8°
